When you browse on this site, cookies collect data to enhance your experience and personalize the content and advertising you see.
Visit our Privacy Policy to learn more. By continuing to use the site, you agree to this use of cookies and data.
  • In Hungary
  • List of Countries
  • For 7 days
  • Water Temperature
  • Satellite Maps
  • Weather Map
  • News
  • Weather Widgets
  • user-avatar
    Login

    Hourly Weather Navodnikovo

    Today, 17 January, Thursday

    Time Temperature Precipitation Wind Pressure Humidity
    00:00 -9°C° 0 mm 3 mps 733 mmHg 92%
    01:00 -9°C° 0 mm 3 mps 734 mmHg 92%
    02:00 -10°C° 0 mm 3 mps 734 mmHg 93%
    03:00 -10°C° 0 mm 3 mps 734 mmHg 93%
    04:00 -12°C° 0 mm 3 mps 734 mmHg 93%
    05:00 -13°C° 0 mm 3 mps 734 mmHg 93%
    06:00 -12°C° 0 mm 4 mps 733 mmHg 93%
    07:00 -12°C° 0 mm 4 mps 733 mmHg 93%
    08:00 -13°C° 0 mm 5 mps 732 mmHg 93%
    09:00 -11°C° 0.2 mm 6 mps 732 mmHg 92%
    10:00 -10°C° 0.2 mm 6 mps 731 mmHg 91%
    11:00 -8°C° 0.2 mm 7 mps 731 mmHg 90%
    12:00 -7°C° 0.3 mm 7 mps 730 mmHg 89%
    13:00 -6°C° 0.3 mm 7 mps 730 mmHg 88%
    14:00 -4°C° 0.3 mm 7 mps 729 mmHg 87%
    15:00 -4°C° 0.1 mm 7 mps 728 mmHg 87%
    16:00 -4°C° 0.1 mm 7 mps 728 mmHg 87%
    17:00 -3°C° 0.1 mm 7 mps 727 mmHg 87%
    18:00 -3°C° 0.3 mm 7 mps 727 mmHg 87%
    19:00 -2°C° 0.3 mm 7 mps 726 mmHg 87%
    20:00 -1°C° 0.3 mm 7 mps 726 mmHg 87%
    21:00 -1°C° 0.1 mm 7 mps 726 mmHg 86%
    22:00 -1°C° 0.1 mm 7 mps 726 mmHg 86%
    23:00 -1°C° 0.1 mm 7 mps 726 mmHg 86%

    Tomorrow, 18 January, Friday

    Time Temperature Precipitation Wind Pressure Humidity
    00:00 -2°C° 0 mm 7 mps 727 mmHg 85%
    01:00 -2°C° 0 mm 7 mps 727 mmHg 84%
    02:00 -2°C° 0 mm 7 mps 728 mmHg 84%
    03:00 -2°C° 0 mm 6 mps 728 mmHg 84%
    04:00 -2°C° 0 mm 6 mps 729 mmHg 85%
    05:00 -2°C° 0 mm 6 mps 729 mmHg 86%
    06:00 -2°C° 0 mm 6 mps 730 mmHg 86%
    07:00 -2°C° 0 mm 6 mps 731 mmHg 86%
    08:00 -2°C° 0 mm 6 mps 731 mmHg 86%
    09:00 -2°C° 0.1 mm 6 mps 732 mmHg 87%
    10:00 -2°C° 0.1 mm 6 mps 732 mmHg 87%
    11:00 -1°C° 0.1 mm 5 mps 733 mmHg 88%
    12:00 -1°C° 0.1 mm 5 mps 733 mmHg 89%
    13:00 -1°C° 0.1 mm 4 mps 733 mmHg 90%
    14:00 -1°C° 0.1 mm 4 mps 733 mmHg 91%
    15:00 -1°C° 0.2 mm 3 mps 733 mmHg 92%
    16:00 -1°C° 0.2 mm 3 mps 732 mmHg 93%
    17:00 -1°C° 0.2 mm 3 mps 732 mmHg 94%
    18:00 -2°C° 1.4 mm 4 mps 731 mmHg 93%
    19:00 -2°C° 1.4 mm 4 mps 731 mmHg 92%
    20:00 -2°C° 1.4 mm 5 mps 731 mmHg 91%
    21:00 -5°C° 0.7 mm 5 mps 731 mmHg 91%
    22:00 -7°C° 0.7 mm 5 mps 732 mmHg 91%
    23:00 -10°C° 0.7 mm 4 mps 732 mmHg 91%

    Day after tomorrow, 19 January, Saturday

    Time Temperature Precipitation Wind Pressure Humidity
    00:00 -10°C° 0.1 mm 4 mps 734 mmHg 91%
    01:00 -10°C° 0.1 mm 3 mps 735 mmHg 91%
    02:00 -12°C° 0.1 mm 3 mps 736 mmHg 91%
    03:00 -12°C° 0 mm 3 mps 736 mmHg 92%
    04:00 -12°C° 0 mm 4 mps 737 mmHg 92%
    05:00 -12°C° 0 mm 4 mps 737 mmHg 93%
    06:00 -12°C° 0 mm 4 mps 738 mmHg 92%
    07:00 -11°C° 0 mm 4 mps 738 mmHg 91%
    08:00 -11°C° 0 mm 4 mps 738 mmHg 90%
    09:00 -11°C° 0 mm 4 mps 739 mmHg 90%
    10:00 -10°C° 0 mm 4 mps 739 mmHg 90%
    11:00 -10°C° 0 mm 4 mps 739 mmHg 90%
    12:00 -10°C° 0 mm 5 mps 739 mmHg 89%
    13:00 -10°C° 0 mm 5 mps 739 mmHg 88%
    14:00 -8°C° 0 mm 5 mps 739 mmHg 87%
    15:00 -10°C° 0 mm 5 mps 740 mmHg 87%
    16:00 -9°C° 0 mm 4 mps 740 mmHg 88%
    17:00 -9°C° 0 mm 4 mps 740 mmHg 88%
    18:00 -9°C° 0 mm 4 mps 740 mmHg 88%
    19:00 -10°C° 0 mm 4 mps 741 mmHg 89%
    20:00 -10°C° 0 mm 4 mps 741 mmHg 89%
    21:00 -9°C° 0 mm 4 mps 741 mmHg 89%
    22:00 -9°C° 0 mm 4 mps 742 mmHg 89%
    23:00 -9°C° 0 mm 4 mps 742 mmHg 89%

    20 January, Sunday

    Time Temperature Precipitation Wind Pressure Humidity
    00:00 -9°C° 0 mm 4 mps 742 mmHg 89%
    01:00 -9°C° 0 mm 4 mps 742 mmHg 89%
    02:00 -9°C° 0 mm 4 mps 742 mmHg 89%
    03:00 -9°C° 0 mm 4 mps 742 mmHg 89%
    04:00 -10°C° 0 mm 4 mps 742 mmHg 90%
    05:00 -10°C° 0 mm 4 mps 742 mmHg 90%
    06:00 -10°C° 0 mm 4 mps 742 mmHg 90%
    07:00 -9°C° 0 mm 4 mps 742 mmHg 91%
    08:00 -9°C° 0 mm 4 mps 742 mmHg 91%
    09:00 -8°C° 0 mm 5 mps 742 mmHg 89%
    10:00 -7°C° 0 mm 5 mps 741 mmHg 88%
    11:00 -8°C° 0 mm 6 mps 741 mmHg 87%
    12:00 -6°C° 0.1 mm 6 mps 740 mmHg 86%
    13:00 -6°C° 0.1 mm 6 mps 740 mmHg 85%
    14:00 -5°C° 0.1 mm 6 mps 739 mmHg 84%
    15:00 -5°C° 0.2 mm 6 mps 739 mmHg 85%
    16:00 -6°C° 0.2 mm 6 mps 739 mmHg 86%
    17:00 -6°C° 0.2 mm 6 mps 739 mmHg 87%
    18:00 -6°C° 0.2 mm 5 mps 739 mmHg 88%
    19:00 -7°C° 0.2 mm 5 mps 739 mmHg 90%
    20:00 -7°C° 0.2 mm 4 mps 739 mmHg 92%
    21:00 -7°C° 0.1 mm 3 mps 740 mmHg 92%
    22:00 -8°C° 0.1 mm 3 mps 740 mmHg 93%
    23:00 -7°C° 0.1 mm 2 mps 740 mmHg 93%

    21 January, Monday

    Time Temperature Precipitation Wind Pressure Humidity
    00:00 -8°C° 0 mm 2 mps 740 mmHg 94%
    01:00 -9°C° 0 mm 2 mps 740 mmHg 94%
    02:00 -10°C° 0 mm 2 mps 740 mmHg 95%
    03:00 -12°C° 0 mm 2 mps 740 mmHg 95%
    04:00 -13°C° 0 mm 2 mps 740 mmHg 95%
    05:00 -13°C° 0 mm 2 mps 740 mmHg 96%
    06:00 -11°C° 0.1 mm 1 mps 740 mmHg 96%
    07:00 -11°C° 0.1 mm 1 mps 740 mmHg 96%
    08:00 -10°C° 0.1 mm 1 mps 740 mmHg 97%
    09:00 -10°C° 0.2 mm 1 mps 740 mmHg 96%
    10:00 -10°C° 0.2 mm 2 mps 741 mmHg 95%
    11:00 -9°C° 0.2 mm 2 mps 741 mmHg 94%
    12:00 -9°C° 0.1 mm 2 mps 741 mmHg 92%
    13:00 -10°C° 0.1 mm 2 mps 741 mmHg 90%
    14:00 -12°C° 0.1 mm 3 mps 741 mmHg 88%
    15:00 -13°C° 0 mm 3 mps 741 mmHg 89%
    16:00 -14°C° 0 mm 3 mps 741 mmHg 90%
    17:00 -14°C° 0 mm 2 mps 742 mmHg 92%
    18:00 -15°C° 0 mm 3 mps 742 mmHg 92%
    19:00 -16°C° 0 mm 3 mps 742 mmHg 93%
    20:00 -17°C° 0 mm 3 mps 742 mmHg 94%
    21:00 -18°C° 0 mm 3 mps 742 mmHg 95%
    22:00 -17°C° 0 mm 2 mps 742 mmHg 96%
    23:00 -17°C° 0 mm 2 mps 742 mmHg 96%

    22 January, Tuesday

    Time Temperature Precipitation Wind Pressure Humidity
    00:00 -17°C° 0 mm 2 mps 742 mmHg 96%
    01:00 -17°C° 0 mm 3 mps 742 mmHg 95%
    02:00 -16°C° 0 mm 3 mps 742 mmHg 95%
    03:00 -16°C° 0 mm 3 mps 742 mmHg 95%
    04:00 -16°C° 0 mm 3 mps 742 mmHg 95%
    05:00 -16°C° 0 mm 3 mps 742 mmHg 95%
    06:00 -16°C° 0 mm 3 mps 742 mmHg 95%
    07:00 -15°C° 0 mm 2 mps 742 mmHg 95%
    08:00 -16°C° 0 mm 2 mps 742 mmHg 96%
    09:00 -16°C° 0 mm 3 mps 743 mmHg 94%
    10:00 -15°C° 0 mm 3 mps 743 mmHg 93%
    11:00 -14°C° 0 mm 3 mps 743 mmHg 92%
    12:00 -14°C° 0 mm 3 mps 743 mmHg 91%
    13:00 -14°C° 0 mm 3 mps 743 mmHg 90%
    14:00 -14°C° 0 mm 3 mps 743 mmHg 89%
    15:00 -14°C° 0 mm 3 mps 744 mmHg 90%
    16:00 -14°C° 0 mm 2 mps 744 mmHg 91%
    17:00 -15°C° 0 mm 2 mps 744 mmHg 93%
    18:00 -16°C° 0 mm 2 mps 745 mmHg 93%
    19:00 -17°C° 0 mm 2 mps 745 mmHg 94%
    20:00 -18°C° 0 mm 2 mps 745 mmHg 95%
    21:00 -19°C° 0 mm 2 mps 745 mmHg 96%
    22:00 -20°C° 0 mm 2 mps 746 mmHg 97%
    23:00 -20°C° 0 mm 2 mps 746 mmHg 98%
    Show more